[[{"header":{"parameterUnit":"m.s-1","parameterCategory":1,"la1":30.2991,"la2":30.254,"lo1":-89.0895,"lo2":-89.0444,"dy":0.0017,"dx":0.0017,"nx":28,"ny":28,"refTime":"2026-01-05T09:00:00:Z","depth":0,"parameterNumber":2,"parameterNumberName":"U-component_of_WINDS"},"data":[0,0,0,0,0,0,0,0,0,0,0,0,0,0,0,0,0,0,0,0,0,0,0,0,0,0,0,0,0,0,0,0,0,0,0,0,0,0,0,0,0,0,0,0,0,0,0,0,0,0,0,0,0,0,0,0,0,0,2.4733,2.4734,0,2.4808,2.4809,2.481,2.4758,2.4756,2.4753,2.4751,2.4835,2.4839,2.4844,0,0,0,0,0,0,0,0,0,0,0,0,0,2.4555,2.4559,2.4733,2.4734,2.4735,2.4808,2.4809,2.481,2.4758,2.4755,2.4753,2.475,2.4834,2.4839,2.4844,0,0,0,0,0,0,0,0,0,0,0,0,0,2.4632,2.456,2.4733,2.4718,2.4717,2.4808,2.4809,2.481,2.4759,2.4755,2.4752,2.4749,2.4832,2.4838,2.4845,2.4956,0,0,2.4865,2.4868,0,0,0,0,0,0,0,0,2.4627,2.4638,2.4719,2.4719,2.4719,2.477,2.4777,2.4859,2.476,2.4743,2.4751,2.4747,2.4817,2.4824,2.4846,2.496,2.4964,2.4866,2.487,2.4873,2.4875,0,0,0,0,0,0,0,2.4622,2.4635,2.4763,2.4721,2.472,2.4711,2.4717,2.4792,2.4799,2.4745,2.4741,2.475,2.4816,2.484,2.4848,2.4965,2.4866,2.4872,2.4876,2.4878,2.5177,2.5181,0,0,0,0,0,0,2.4617,2.4631,2.4761,2.4765,2.4663,2.4717,2.4724,2.4757,2.4798,2.4801,2.4753,2.4747,2.4831,2.484,2.4851,2.4985,2.4873,2.4879,2.4883,2.5173,2.5178,2.5182,0,0,0,0,0,0,2.4613,2.4629,2.4758,2.4697,2.4713,2.4723,2.4761,2.476,2.4784,2.4804,2.4806,2.4776,2.4828,2.4841,2.4931,2.4987,2.4882,2.4888,2.5169,2.5175,2.518,2.5254,0,0,0,0,0,0,2.4609,2.4628,2.4668,2.4698,2.4716,2.4834,2.4764,2.4764,2.4795,2.4788,2.4826,2.4829,2.4826,2.4921,2.4937,2.4995,2.4893,2.5164,2.5171,2.5178,2.5247,2.5262,2.5275,0,0,0,0,0,2.4602,2.4687,2.4671,2.4687,2.4766,2.4837,2.4847,2.484,2.48,2.4842,2.4855,2.4828,2.4979,2.493,2.4948,2.5009,2.516,2.5169,2.5178,2.524,2.5259,2.5275,0,0,0,0,0,0,2.4666,2.4691,2.4673,2.4769,2.4801,2.4828,2.488,2.486,2.4905,2.4898,2.4889,2.4898,2.4992,2.5009,2.4955,2.512,2.5063,2.5076,2.5105,2.5123,2.5136,2.5131,2.4899,0,0,0,0,0,2.4691,2.4743,2.4764,2.4847,2.4864,2.487,2.49,2.4892,2.4926,2.494,2.4959,2.4995,2.5051,2.5088,2.514,2.5249,2.5258,2.53,2.5314,2.5325,2.5337,2.5398,2.5418,2.5212,2.5212,2.5211,0,0,2.4743,2.4764,2.4798,2.4861,2.4884,2.4942,2.4881,2.4945,2.4988,2.495,2.5035,2.5051,2.5091,2.5191,2.5236,2.5209,2.5396,2.5337,2.5346,2.5351,2.5409,2.5429,2.5446,2.5218,2.5217,2.5216,0,0,2.4869,2.4888,2.4961,2.4986,2.5022,2.5025,2.5043,2.5074,2.5082,2.5167,2.514,2.5193,2.5288,2.5318,2.5346,2.5486,2.5463,2.5503,2.5577,2.5637,2.5653,2.5668,2.5719,2.5737,2.5515,2.5515,2.5515,0,2.493,2.5013,2.5001,2.5066,2.5096,2.5062,2.5138,2.5163,2.5216,2.5239,2.5206,2.5326,2.5351,2.5458,2.5492,2.5516,2.5538,2.5499,2.5651,2.5666,2.5679,2.5728,2.5747,2.5519,2.5519,2.5518,2.5518,0,2.5088,2.5146,2.5201,2.525,2.5286,2.5356,2.5358,2.5396,2.5386,2.5394,2.5482,2.5511,2.5569,2.5594,2.5585,2.5701,2.5683,2.5651,2.5594,2.5703,2.5749,2.5768,2.5526,2.5524,2.5523,2.5522,0,0,2.5253,2.5296,2.5316,2.5339,2.5378,2.5424,2.5494,2.5549,2.5583,2.5621,2.5682,2.5764,2.5735,2.5767,2.5761,2.5814,2.5925,2.5776,2.5777,2.5804,2.6057,2.6081,2.6103,2.591,2.5914,2.5916,2.6054,0,2.5381,2.55,2.5493,2.5606,2.5661,2.5632,2.5693,2.5725,2.5736,2.5786,2.5799,2.5858,2.5814,2.5834,2.5884,2.59,2.5976,2.589,2.5969,2.5972,2.596,2.6126,2.6151,2.628,2.6072,2.6075,2.6077,0,2.5545,2.5587,2.5705,2.5737,2.576,2.5815,2.5866,2.5914,2.5951,2.5955,2.5992,2.5978,2.6053,2.5994,2.6098,2.604,2.6072,2.6085,2.609,2.6097,2.6031,2.6139,2.632,2.634,2.6105,2.6103,2.6101,0,2.5655,2.5742,2.5824,2.5845,2.5884,2.5923,2.5942,2.5975,2.601,2.6055,2.6078,2.6133,2.6163,2.6207,2.621,2.6166,2.6316,2.6256,2.6323,2.6324,2.6356,2.6354,2.6546,2.6376,2.6376,2.6376,2.6375,0,2.5799,2.5873,2.5874,2.5925,2.6008,2.6001,2.6084,2.6099,2.613,2.6185,2.6164,2.6217,2.6217,2.6273,2.6276,2.6363,2.6377,2.6384,2.6384,2.6386,2.6385,2.6407,2.6399,2.6381,2.638,2.6379,2.6378,0,2.5935,2.5939,2.6027,2.6057,2.6066,2.6126,2.6153,2.6203,2.6212,2.6283,2.6299,2.6314,2.6378,2.6385,2.6461,2.6463,2.6568,2.6559,2.6555,2.6554,2.662,2.6614,2.6833,2.6862,2.6673,2.6675,2.6677,0,2.6026,2.6082,2.6118,2.6153,2.6173,2.6229,2.6264,2.626,2.6298,2.6346,2.6391,2.6452,2.6501,2.6606,2.6625,2.6684,2.6676,2.6749,2.6685,2.6685,2.6678,2.6675,2.6682,2.6761,2.6763,2.6765,2.6766,0,2.6188,2.6188,2.6237,2.6288,2.6329,2.6369,2.6407,2.6438,2.6439,2.6483,2.6547,2.6585,2.6662,2.6725,2.6782,2.6805,2.6788,2.6786,2.6805,2.6808,2.6803,2.6808,2.6589,2.6781,2.678,2.6779,2.6778,2.6777,2.6305,2.6354,2.6387,2.6444,2.6472,2.6508,2.6557,2.6572,2.6624,2.6685,2.6681,2.6752,2.6792,2.6867,2.6894,2.6952,2.6928,2.6955,2.6962,2.6969,2.6976,2.6794,2.6963,2.6962,2.6962,2.6962,2.6961,0,2.6467,2.6487,2.6539,2.6592,2.6637,2.6614,2.6656,2.6696,2.6758,2.6795,2.6844,2.6919,2.6981,2.7005,2.7066,2.7108,2.7102,2.7124,2.7121,2.7127,2.6993,2.6971,2.7129,2.7129,2.7128,2.7128,2.7128,2.7128,2.6556,2.6638,2.6642,2.6739,2.676,2.6828,2.6854,2.6889,2.6918,2.7002,2.7052,2.7067,2.71,2.7164,2.722,2.7226,2.725,2.7277,2.7279,2.7154,2.7137,2.712,2.71,2.7282,2.7282,2.7409,2.741,2.7411]},{"header":{"parameterUnit":"m.s-1","parameterCategory":1,"la1":30.2991,"la2":30.254,"lo1":-89.0895,"lo2":-89.0444,"dy":0.0017,"dx":0.0017,"nx":28,"ny":28,"refTime":"2026-01-05T09:00:00:Z","depth":0,"parameterNumber":3,"parameterNumberName":"V-component_of_WINDS"},"data":[0,0,0,0,0,0,0,0,0,0,0,0,0,0,0,0,0,0,0,0,0,0,0,0,0,0,0,0,0,0,0,0,0,0,0,0,0,0,0,0,0,0,0,0,0,0,0,0,0,0,0,0,0,0,0,0,0,0,2.0988,2.0989,0,2.1086,2.1087,2.1088,2.1103,2.1102,2.1101,2.11,2.1201,2.1204,2.1208,0,0,0,0,0,0,0,0,0,0,0,0,0,2.0813,2.0816,2.0988,2.0989,2.099,2.1086,2.1087,2.1089,2.1103,2.1102,2.1101,2.11,2.12,2.1204,2.1208,0,0,0,0,0,0,0,0,0,0,0,0,0,2.0898,2.0817,2.0988,2.1009,2.1012,2.1086,2.1087,2.1089,2.1103,2.1102,2.1101,2.1099,2.1198,2.1203,2.1209,2.1268,0,0,2.1225,2.1227,0,0,0,0,0,0,0,0,2.0893,2.0904,2.1005,2.1008,2.1011,2.1081,2.1062,2.1149,2.1104,2.1069,2.11,2.1099,2.1162,2.117,2.1192,2.1273,2.1277,2.1225,2.1228,2.1231,2.1232,0,0,0,0,0,0,0,2.0887,2.09,2.1027,2.1006,2.101,2.1014,2.1024,2.1079,2.1122,2.1072,2.1073,2.1084,2.1163,2.1186,2.1194,2.1278,2.1225,2.123,2.1233,2.1235,2.1412,2.1414,0,0,0,0,0,0,2.0877,2.0895,2.1024,2.103,2.0947,2.1018,2.103,2.106,2.1121,2.1129,2.1085,2.1085,2.1178,2.1188,2.1198,2.1271,2.1231,2.1235,2.1239,2.1411,2.1413,2.1415,0,0,0,0,0,0,2.0873,2.0888,2.102,2.0963,2.098,2.1022,2.1056,2.1062,2.1085,2.1131,2.1139,2.1101,2.1177,2.119,2.125,2.1275,2.1238,2.1243,2.1409,2.1412,2.1414,2.1419,0,0,0,0,0,0,2.0868,2.0887,2.091,2.0963,2.0983,2.1071,2.1058,2.1065,2.1094,2.1094,2.1148,2.1156,2.1177,2.1242,2.1255,2.1281,2.1247,2.1407,2.141,2.1413,2.1417,2.1421,2.1425,0,0,0,0,0,2.0862,2.0908,2.0911,2.0927,2.1013,2.1072,2.1084,2.1108,2.1096,2.112,2.1149,2.1154,2.127,2.1248,2.1263,2.1291,2.1406,2.1409,2.1413,2.1415,2.142,2.1425,0,0,0,0,0,0,2.0857,2.0915,2.092,2.0984,2.1023,2.1075,2.1105,2.1112,2.1156,2.1154,2.1181,2.1193,2.1252,2.1277,2.1253,2.1351,2.1337,2.1343,2.1333,2.1339,2.1343,2.1336,2.1251,0,0,0,0,0,2.0863,2.0907,2.0955,2.1008,2.1027,2.1063,2.109,2.1104,2.1146,2.1163,2.1197,2.1237,2.1282,2.1311,2.1356,2.142,2.1432,2.1446,2.145,2.1453,2.1459,2.1495,2.1502,2.1426,2.1426,2.1426,0,0,2.0877,2.0914,2.094,2.1007,2.104,2.1084,2.1077,2.1124,2.1158,2.117,2.1229,2.1255,2.1301,2.1364,2.1393,2.1387,2.1482,2.1458,2.146,2.1464,2.1499,2.1506,2.1513,2.1428,2.1428,2.1428,0,0,2.0925,2.0957,2.1005,2.1037,2.1085,2.1108,2.1119,2.117,2.1188,2.1247,2.1257,2.1297,2.1374,2.1407,2.1434,2.1493,2.1499,2.1507,2.1528,2.1563,2.1569,2.1574,2.1596,2.1603,2.1512,2.1512,2.1512,0,2.0936,2.1004,2.1028,2.1075,2.1104,2.1117,2.1165,2.1195,2.1255,2.1275,2.1267,2.1364,2.1396,2.1467,2.1481,2.1502,2.1516,2.1501,2.1566,2.1572,2.1577,2.1598,2.1606,2.1513,2.1513,2.1512,2.1512,0,2.1016,2.1062,2.1094,2.1152,2.1185,2.1232,2.1263,2.1293,2.1304,2.1328,2.1388,2.1427,2.148,2.1497,2.1509,2.1569,2.1563,2.156,2.1546,2.1585,2.1605,2.1613,2.1514,2.1513,2.1513,2.1513,0,0,2.1065,2.1134,2.1146,2.1172,2.1226,2.1263,2.131,2.1361,2.1386,2.1427,2.1468,2.1532,2.153,2.156,2.1575,2.1605,2.165,2.1599,2.16,2.1608,2.1719,2.1722,2.1731,2.1654,2.1655,2.1657,2.1715,0,2.112,2.1205,2.1227,2.13,2.1344,2.1355,2.1397,2.1434,2.1457,2.1497,2.1523,2.1569,2.1561,2.158,2.161,2.1638,2.1673,2.1634,2.1692,2.1694,2.1682,2.1741,2.1744,2.1798,2.1723,2.1724,2.1725,0,2.1196,2.1238,2.1315,2.1363,2.1382,2.1419,2.1467,2.1505,2.1547,2.1562,2.1595,2.1608,2.1657,2.1639,2.1708,2.1681,2.1706,2.1723,2.1726,2.1733,2.1713,2.1751,2.1815,2.1824,2.1738,2.1737,2.1736,0,2.1225,2.1301,2.1357,2.1379,2.1436,2.1461,2.1486,2.1527,2.1556,2.1598,2.1617,2.1664,2.169,2.1726,2.175,2.1735,2.1817,2.1801,2.1831,2.1831,2.1849,2.1848,2.192,2.1863,2.1863,2.1863,2.1863,0,2.1285,2.1332,2.1371,2.1405,2.1458,2.1482,2.1533,2.1558,2.1595,2.1634,2.1646,2.1683,2.1713,2.1753,2.1773,2.1827,2.1838,2.1852,2.1857,2.1851,2.185,2.1869,2.1866,2.1865,2.1865,2.1864,2.1864,0,2.1327,2.1355,2.1417,2.1465,2.1478,2.1515,2.1556,2.159,2.1613,2.1663,2.1676,2.1712,2.176,2.1788,2.1849,2.1862,2.1922,2.1925,2.1908,2.1911,2.1939,2.1936,2.2027,2.204,2.1973,2.1974,2.1974,0,2.1364,2.14,2.1452,2.148,2.1505,2.1548,2.1578,2.1603,2.1633,2.1683,2.1711,2.176,2.1801,2.1877,2.1909,2.1956,2.196,2.1988,2.1967,2.1961,2.1962,2.196,2.1963,2.1992,2.1993,2.1994,2.1994,0,2.1427,2.1439,2.1481,2.1528,2.1563,2.1601,2.1639,2.166,2.1691,2.1725,2.1774,2.1806,2.1867,2.1916,2.1965,2.199,2.1998,2.2,2.201,2.2005,2.1995,2.2002,2.1919,2.1998,2.1998,2.1997,2.1997,2.1997,2.1468,2.1501,2.1542,2.1589,2.162,2.1655,2.1689,2.1716,2.1758,2.181,2.1822,2.1874,2.1915,2.1981,2.2008,2.2049,2.2044,2.2057,2.2061,2.2064,2.2066,2.1987,2.2057,2.2057,2.2057,2.2057,2.2057,0,2.1532,2.1559,2.1602,2.1654,2.1691,2.1693,2.1735,2.1766,2.1811,2.1849,2.1888,2.1945,2.1992,2.2027,2.2075,2.2101,2.2105,2.2113,2.2112,2.2117,2.2067,2.2054,2.2108,2.2108,2.2108,2.2108,2.2108,2.2108,2.157,2.1626,2.1642,2.1713,2.174,2.1791,2.1815,2.1847,2.1877,2.1939,2.1979,2.2001,2.2037,2.2088,2.2131,2.214,2.2157,2.2164,2.2174,2.2126,2.2121,2.2116,2.2104,2.2167,2.2167,2.2221,2.2221,2.2222]}]]